Location: Bratislava
(48.1517°N, 17.1093°E)
Time: 23:55:23
(UTC+02:00)

BlueWalker 3 - Visible Passes

Search period start: 26 March 2023 00:00
Search period end: 05 April 2023 01:00
Orbit: 497 x 515 km, 53.2° (Epoch: 25 March)

Date Brightness Start Highest point End Pass type
(mag) Time Alt. Az. Time Alt. Az. Time Alt. Az.
26 Mar 3.8 21:12:03 10° SSW 21:13:22 19° SSW 21:13:22 19° SSW visible
27 Mar 2.5 20:52:21 10° SSW 20:55:49 36° SE 20:55:49 36° SE visible
27 Mar 4.9 22:30:33 10° W 22:30:39 11° W 22:30:39 11° W visible
28 Mar 2.5 20:32:37 10° SSW 20:36:14 37° SE 20:37:59 24° E visible
28 Mar 3.8 22:10:53 10° W 22:12:47 26° W 22:12:47 26° W visible
29 Mar 2.5 20:12:53 10° SSW 20:16:32 38° SE 20:19:51 12° ENE visible
29 Mar 2.6 21:51:12 10° W 21:54:38 53° NW 21:54:38 53° NW visible
30 Mar 2.5 19:53:09 10° SSW 19:56:49 40° SE 20:00:29 10° ENE visible
30 Mar 2.5 21:31:29 10° W 21:35:20 56° NNW 21:36:15 43° NNE visible
30 Mar 5.1 23:10:44 10° WNW 23:11:01 12° WNW 23:11:01 12° WNW visible
31 Mar 2.5 21:11:47 10° W 21:15:37 55° NNW 21:17:40 25° NE visible
31 Mar 4.5 22:51:01 10° WNW 22:52:25 20° NW 22:52:25 20° NW visible
01 Apr 2.6 20:52:03 10° W 20:55:54 54° NNW 20:58:56 15° ENE visible
01 Apr 3.9 22:31:18 10° WNW 22:33:41 29° NW 22:33:41 29° NW visible
02 Apr 2.6 20:32:19 10° W 20:36:09 53° NNW 20:39:59 10° ENE visible
02 Apr 3.3 22:11:33 10° WNW 22:14:50 37° NNW 22:14:50 37° NNW visible
03 Apr 2.7 20:12:34 10° W 20:16:24 52° NNW 20:20:14 10° ENE visible
03 Apr 3.0 21:51:48 10° WNW 21:55:29 38° N 21:55:55 37° NNE visible
03 Apr 5.1 23:30:33 10° WNW 23:30:39 11° WNW 23:30:39 11° WNW visible
04 Apr 2.7 19:52:48 10° W 19:56:38 51° NNW 20:00:27 10° ENE visible
04 Apr 3.1 21:32:02 10° WNW 21:35:43 39° N 21:36:56 30° NE visible
04 Apr 4.7 23:10:46 10° WNW 23:11:40 16° WNW 23:11:40 16° WNW visible
